When you browse on this site, cookies collect data to enhance your experience and personalize the content and advertising you see.
Visit our Privacy Policy to learn more. By continuing to use the site, you agree to this use of cookies and data.
  • In Lithuania
  • List of Countries
  • For 7 days
  • Water Temperature
  • Satellite Maps
  • Weather Map
  • Weather Widgets
  • user-avatar
    Login

    Hourly Weather Barinas

    Today, 19 November, Monday

    Time Temperature Precipitation Wind Pressure Humidity
    00:00 +25°C° 0.6 mm 1 mps 743 mmHg 78%
    01:00 +25°C° 0.6 mm 1 mps 743 mmHg 78%
    02:00 +25°C° 0.4 mm 1 mps 743 mmHg 78%
    03:00 +25°C° 0.4 mm 1 mps 742 mmHg 79%
    04:00 +25°C° 0.4 mm 2 mps 742 mmHg 79%
    05:00 +26°C° 0.1 mm 1 mps 743 mmHg 78%
    06:00 +26°C° 0.1 mm 1 mps 743 mmHg 77%
    07:00 +27°C° 0.1 mm 1 mps 744 mmHg 76%
    08:00 +29°C° 0.1 mm 1 mps 744 mmHg 71%
    09:00 +30°C° 0.1 mm 2 mps 744 mmHg 67%
    10:00 +32°C° 0.1 mm 2 mps 744 mmHg 62%
    11:00 +32°C° 0.2 mm 2 mps 744 mmHg 61%
    12:00 +34°C° 0.2 mm 2 mps 743 mmHg 60%
    13:00 +34°C° 0.2 mm 2 mps 742 mmHg 59%
    14:00 +34°C° 0.1 mm 2 mps 741 mmHg 61%
    15:00 +32°C° 0.1 mm 2 mps 741 mmHg 63%
    16:00 +32°C° 0.1 mm 2 mps 740 mmHg 65%
    17:00 +30°C° 0.6 mm 2 mps 741 mmHg 71%
    18:00 +29°C° 0.6 mm 1 mps 741 mmHg 77%
    19:00 +27°C° 0.6 mm 1 mps 742 mmHg 82%
    20:00 +27°C° 0.3 mm 1 mps 742 mmHg 81%
    21:00 +27°C° 0.3 mm 1 mps 742 mmHg 79%
    22:00 +26°C° 0.3 mm 1 mps 743 mmHg 78%
    23:00 +26°C° 0.2 mm 1 mps 743 mmHg 76%

    Tomorrow, 20 November, Tuesday

    Time Temperature Precipitation Wind Pressure Humidity
    00:00 +26°C° 0.2 mm 1 mps 743 mmHg 74%
    01:00 +25°C° 0.2 mm 1 mps 742 mmHg 72%
    02:00 +25°C° 0.3 mm 1 mps 742 mmHg 73%
    03:00 +25°C° 0.3 mm 1 mps 742 mmHg 74%
    04:00 +25°C° 0.3 mm 1 mps 742 mmHg 75%
    05:00 +25°C° 0.2 mm 1 mps 743 mmHg 75%
    06:00 +26°C° 0.2 mm 1 mps 743 mmHg 75%
    07:00 +27°C° 0.2 mm 1 mps 744 mmHg 74%
    08:00 +28°C° 0.1 mm 2 mps 744 mmHg 71%
    09:00 +30°C° 0.1 mm 2 mps 744 mmHg 68%
    10:00 +32°C° 0.1 mm 2 mps 745 mmHg 64%
    11:00 +33°C° 0.4 mm 3 mps 744 mmHg 64%
    12:00 +33°C° 0.4 mm 3 mps 743 mmHg 63%
    13:00 +34°C° 0.4 mm 3 mps 742 mmHg 62%
    14:00 +32°C° 0.4 mm 2 mps 741 mmHg 65%
    15:00 +32°C° 0.4 mm 2 mps 741 mmHg 69%
    16:00 +31°C° 0.4 mm 2 mps 740 mmHg 72%
    17:00 +30°C° 0.3 mm 2 mps 741 mmHg 76%
    18:00 +28°C° 0.3 mm 1 mps 741 mmHg 81%
    19:00 +27°C° 0.3 mm 1 mps 742 mmHg 85%
    20:00 +27°C° 0 mm 1 mps 742 mmHg 83%
    21:00 +27°C° 0 mm 1 mps 743 mmHg 81%
    22:00 +26°C° 0 mm 1 mps 743 mmHg 79%
    23:00 +26°C° 0.1 mm 1 mps 743 mmHg 76%

    Day after tomorrow, 21 November, Wednesday

    Time Temperature Precipitation Wind Pressure Humidity
    00:00 +26°C° 0.1 mm 1 mps 743 mmHg 73%
    01:00 +26°C° 0.1 mm 1 mps 743 mmHg 70%
    02:00 +25°C° 0.3 mm 1 mps 742 mmHg 72%
    03:00 +25°C° 0.3 mm 1 mps 742 mmHg 73%
    04:00 +25°C° 0.3 mm 1 mps 742 mmHg 74%
    05:00 +26°C° 0.1 mm 1 mps 743 mmHg 74%
    06:00 +27°C° 0.1 mm 1 mps 743 mmHg 73%
    07:00 +27°C° 0.1 mm 1 mps 744 mmHg 73%
    08:00 +29°C° 0 mm 1 mps 744 mmHg 69%
    09:00 +31°C° 0 mm 2 mps 745 mmHg 65%
    10:00 +32°C° 0 mm 2 mps 745 mmHg 61%
    11:00 +34°C° 0.1 mm 2 mps 744 mmHg 61%
    12:00 +34°C° 0.1 mm 2 mps 743 mmHg 61%
    13:00 +34°C° 0.1 mm 2 mps 742 mmHg 60%
    14:00 +34°C° 0.1 mm 2 mps 741 mmHg 64%
    15:00 +32°C° 0.1 mm 2 mps 741 mmHg 68%
    16:00 +32°C° 0.1 mm 2 mps 740 mmHg 71%
    17:00 +30°C° 0.2 mm 1 mps 741 mmHg 76%
    18:00 +29°C° 0.2 mm 1 mps 741 mmHg 82%
    19:00 +28°C° 0.2 mm 1 mps 742 mmHg 87%
    20:00 +27°C° 0.2 mm 1 mps 742 mmHg 87%
    21:00 +27°C° 0.2 mm 1 mps 742 mmHg 88%
    22:00 +27°C° 0.2 mm 1 mps 743 mmHg 88%
    23:00 +27°C° 0.7 mm 1 mps 742 mmHg 88%

    22 November, Thursday

    Time Temperature Precipitation Wind Pressure Humidity
    00:00 +26°C° 0.7 mm 1 mps 742 mmHg 87%
    01:00 +26°C° 0.7 mm 1 mps 742 mmHg 87%
    02:00 +26°C° 0.7 mm 1 mps 742 mmHg 87%
    03:00 +26°C° 0.7 mm 1 mps 742 mmHg 87%
    04:00 +25°C° 0.7 mm 1 mps 742 mmHg 86%
    05:00 +26°C° 0.4 mm 1 mps 742 mmHg 85%
    06:00 +26°C° 0.4 mm 1 mps 743 mmHg 83%
    07:00 +27°C° 0.4 mm 1 mps 744 mmHg 82%
    08:00 +28°C° 0.5 mm 1 mps 744 mmHg 78%
    09:00 +30°C° 0.5 mm 2 mps 744 mmHg 73%
    10:00 +31°C° 0.5 mm 2 mps 744 mmHg 69%
    11:00 +31°C° 0.4 mm 2 mps 743 mmHg 68%
    12:00 +32°C° 0.4 mm 2 mps 742 mmHg 66%
    13:00 +32°C° 0.4 mm 2 mps 741 mmHg 65%
    14:00 +32°C° 0.4 mm 2 mps 740 mmHg 67%
    15:00 +32°C° 0.4 mm 2 mps 740 mmHg 69%
    16:00 +31°C° 0.4 mm 2 mps 739 mmHg 72%
    17:00 +30°C° 1.1 mm 1 mps 740 mmHg 77%
    18:00 +29°C° 1.1 mm 1 mps 740 mmHg 82%
    19:00 +27°C° 1.1 mm 1 mps 741 mmHg 87%
    20:00 +27°C° 0.6 mm 1 mps 741 mmHg 87%
    21:00 +27°C° 0.6 mm 1 mps 742 mmHg 87%
    22:00 +27°C° 0.6 mm 1 mps 742 mmHg 87%
    23:00 +26°C° 0.1 mm 1 mps 742 mmHg 87%

    23 November, Friday

    Time Temperature Precipitation Wind Pressure Humidity
    00:00 +26°C° 0.1 mm 1 mps 742 mmHg 87%
    01:00 +26°C° 0.1 mm 1 mps 741 mmHg 87%
    02:00 +26°C° 0 mm 1 mps 741 mmHg 86%
    03:00 +25°C° 0 mm 1 mps 741 mmHg 86%
    04:00 +25°C° 0 mm 1 mps 741 mmHg 86%
    05:00 +26°C° 0 mm 1 mps 742 mmHg 84%
    06:00 +26°C° 0 mm 1 mps 742 mmHg 81%
    07:00 +27°C° 0 mm 1 mps 743 mmHg 79%
    08:00 +28°C° 0.1 mm 1 mps 743 mmHg 75%
    09:00 +30°C° 0.1 mm 1 mps 743 mmHg 70%
    10:00 +31°C° 0.1 mm 2 mps 743 mmHg 66%
    11:00 +32°C° 0.2 mm 2 mps 742 mmHg 65%
    12:00 +32°C° 0.2 mm 2 mps 741 mmHg 65%
    13:00 +32°C° 0.2 mm 2 mps 740 mmHg 64%
    14:00 +32°C° 0.3 mm 2 mps 740 mmHg 67%
    15:00 +31°C° 0.3 mm 1 mps 739 mmHg 70%
    16:00 +31°C° 0.3 mm 1 mps 739 mmHg 73%
    17:00 +30°C° 0.3 mm 1 mps 740 mmHg 77%
    18:00 +29°C° 0.3 mm 1 mps 740 mmHg 80%
    19:00 +28°C° 0.3 mm 1 mps 741 mmHg 84%
    20:00 +27°C° 0.3 mm 1 mps 741 mmHg 85%
    21:00 +27°C° 0.3 mm 1 mps 741 mmHg 86%
    22:00 +26°C° 0.3 mm 1 mps 741 mmHg 87%
    23:00 +26°C° 0.2 mm 1 mps 741 mmHg 87%

    24 November, Saturday

    Time Temperature Precipitation Wind Pressure Humidity
    00:00 +26°C° 0.2 mm 1 mps 741 mmHg 88%
    01:00 +26°C° 0.2 mm 1 mps 740 mmHg 88%
    02:00 +26°C° 0 mm 1 mps 741 mmHg 87%
    03:00 +25°C° 0 mm 1 mps 741 mmHg 86%
    04:00 +25°C° 0 mm 1 mps 741 mmHg 86%
    05:00 +26°C° 0 mm 1 mps 741 mmHg 83%
    06:00 +27°C° 0 mm 1 mps 742 mmHg 80%
    07:00 +27°C° 0 mm 1 mps 742 mmHg 77%
    08:00 +29°C° 0 mm 1 mps 743 mmHg 71%
    09:00 +31°C° 0 mm 2 mps 743 mmHg 65%
    10:00 +32°C° 0 mm 2 mps 743 mmHg 59%
    11:00 +34°C° 0.1 mm 2 mps 742 mmHg 59%
    12:00 +34°C° 0.1 mm 2 mps 741 mmHg 59%
    13:00 +34°C° 0.1 mm 2 mps 740 mmHg 59%
    14:00 +34°C° 0.1 mm 2 mps 740 mmHg 62%
    15:00 +32°C° 0.1 mm 2 mps 739 mmHg 64%
    16:00 +32°C° 0.1 mm 2 mps 739 mmHg 67%
    17:00 +31°C° 0.1 mm 1 mps 739 mmHg 72%
    18:00 +29°C° 0.1 mm 1 mps 740 mmHg 77%
    19:00 +28°C° 0.1 mm 1 mps 740 mmHg 82%
    20:00 +27°C° 0.1 mm 1 mps 741 mmHg 83%
    21:00 +27°C° 0.1 mm 1 mps 741 mmHg 83%
    22:00 +26°C° 0.1 mm 1 mps 741 mmHg 84%
    23:00 +26°C° 0 mm 1 mps 741 mmHg 84%
    Show more